Regional Weather Roundup
Issued by NWS

Home | Current Version | Previous Version | Text Only | Print | Product List | Glossary Off
Versions: 1 2 3 4 5 6 7 8 9 10 11 12 13 14 15 16 17 18 19 20 21 22 23 24 25 26 27 28 29 30 31 32 33 34 35 36 37 38 39 40 41 42 43 44 45 46 47 48 49 50

000
ASUS45 KSLC 301910
RWRUT

UTAH REGIONAL WEATHER ROUNDUP
NATIONAL WEATHER SERVICE SALT LAKE CITY UT
100 PM MDT SUN AUG 30 2015

UTZ001>011-023>025-302000-

NORTHERN UTAH

CITY           SKY/WX    TMP DP  RH WIND       PRES   REMARKS
BRIGHAM CITY   PTSUNNY   83  43  24 W6        29.99F
HILL AFB       PTSUNNY   81  47  30 NW7       30.02F
LOGAN          SUNNY     82  45  27 E6        30.00F
OGDEN          PTSUNNY   83  46  27 W6        29.99F
PROVO AIRPORT  PTSUNNY   88  52  29 S6        30.02F
SALT LAKE CITY PTSUNNY   82  48  30 NW13G22   29.98F
VERNAL         MOSUNNY   82  39  21 S6        30.07F
WENDOVER       PTSUNNY   84  39  20 SE7       30.00F
HEBER CITY     CLOUDY    81  39  22 SW17G29   30.07F
WEST JORDAN    PTSUNNY   81  50  34 NW17      30.00F

$$

UTZ012>022-026-027-302000-

SOUTHERN/CENTRAL UTAH

CITY           SKY/WX    TMP DP  RH WIND       PRES   REMARKS
BLANDING       MOSUNNY   84  46  26 CALM      30.28F
BRYCE CANYON   PTSUNNY   76  48  37 S21G30    30.30F THUNDER
CEDAR CITY     CLOUDY    82  45  27 SW24G37   30.13F
DELTA          CLOUDY    86  42  20 SW18G26   30.04F
HANKSVILLE     MOSUNNY   95  45  17 SW18      30.03F HX  91
MILFORD        CLOUDY    88  45  22 SW30G36   30.06F
MOAB/CYNLANDS  PTSUNNY   90  46  21 S7        30.02F
PRICE          PTSUNNY   76  50  40 N9        30.11F
ST GEORGE      CLOUDY    93  50  22 NW13      29.94F HX  90
KANAB          MOSUNNY   84  55  37 SW5G16    30.16F

$$

REGIONAL REPORTS     COLORADO/ARIZONA

CITY           SKY/WX    TMP DP  RH WIND       PRES   REMARKS
CRAIG, CO      MOSUNNY   84  40  21 W20       30.16S
GRAND JUNCTION MOSUNNY   86  43  22 CALM      30.07F
RIFLE          MOSUNNY   86  41  20 MISG      30.13F
MONTROSE       MOSUNNY   87  45  23 VRB6      30.17F
CORTEZ         SUNNY     85  46  25 SW9       30.21F
PAGE, AZ       MOSUNNY   89  49  25 N7        30.05F
GRAND CANYON   LGT RAIN  72  58  61 W6G17     30.26F
KINGMAN        SUNNY     96  51  21 S23G35    30.01F HX  93
FLAGSTAFF      MOSUNNY   76  54  46 S10G22    30.31F

$$

REGIONAL REPORTS    NEVADA/IDAHO/WYOMING

CITY           SKY/WX    TMP DP  RH WIND       PRES   REMARKS
LAS VEGAS, NV  PTSUNNY   98  44  15 S9G25     29.85F HX  94
ELY            SUNNY     83  29  14 S18G29    30.11F
ELKO           SUNNY     79  29  16 W15       30.08F
POCATELLO, ID  MOSUNNY   77  46  33 W16       30.05S
BURLEY         SUNNY     74  42  31 W10       30.03F
EVANSTON, WY   PTSUNNY   78  37  22 SW28G37   30.15F
ROCK SPRINGS   CLOUDY    74  43  32 NW15      30.15S
KEMMERER       PTSUNNY   73  36  25 W14G22    30.17F

$$



USA.gov is the U.S. government's official web portal to all federal, state and local government web resources and services.